User: anonymous   Login
Location: CNYAC Observatory
(43.2150°N, 74.9500°W)
Time: 06:54:12
(UTC-05:00)
Language:

Meteor 1-22 Rocket - Orbit

View from above orbital plane
View from above orbital plane
View from above satellite
View from above satellite

Ground track
Ground track

The orbit data is extracted from the following two-line orbital elements,

1 08294U 75087B   16342.78260457  .00000064  00000-0  29061-4 0  9997
2 08294  81.2150 209.1502 0105981 221.2023 138.1113 14.08583376117908
Epoch (UTC): 07 December 2016 18:46:57
Eccentricity: 0.0105981
inclination: 81.2150°
perigee height: 787 km
apogee height: 941 km
right ascension of ascending node: 209.1502°
argument of perigee: 221.2023°
revolutions per day: 14.08583376
mean anomaly at epoch: 138.1113°
orbit number at epoch: 11790

The dashed part of the orbit path shows where the satellite is in the earth's shadow,  

DLR